Year,Month,Day,Hour,Minute,Value (Times are PST for temperature in C)
2009,07,31,00,00,22.60
2009,07,31,00,01,22.60
2009,07,31,00,02,22.60
2009,07,31,00,03,22.60
2009,07,31,00,04,22.60
2009,07,31,00,05,22.60
2009,07,31,00,06,22.60
2009,07,31,00,07,22.50
2009,07,31,00,08,22.50
2009,07,31,00,09,22.50
2009,07,31,00,10,22.40
2009,07,31,00,11,22.40
2009,07,31,00,12,22.40
2009,07,31,00,13,22.40
2009,07,31,00,14,22.50
2009,07,31,00,15,22.50
2009,07,31,00,16,22.50
2009,07,31,00,17,22.50
2009,07,31,00,18,22.60
2009,07,31,00,19,22.60
2009,07,31,00,20,22.70
2009,07,31,00,21,22.70
2009,07,31,00,22,22.80
2009,07,31,00,23,22.80
2009,07,31,00,24,22.80
2009,07,31,00,25,22.90
2009,07,31,00,26,22.90
2009,07,31,00,27,22.90
2009,07,31,00,28,22.90
2009,07,31,00,29,22.90
2009,07,31,00,30,22.90
2009,07,31,00,31,23.00
2009,07,31,00,32,23.10
2009,07,31,00,33,23.10
2009,07,31,00,34,23.10
2009,07,31,00,35,23.20
2009,07,31,00,36,23.20
2009,07,31,00,37,23.20
2009,07,31,00,38,23.30
2009,07,31,00,39,23.30
2009,07,31,00,40,23.30
2009,07,31,00,41,23.30
2009,07,31,00,42,23.30
2009,07,31,00,43,23.30
2009,07,31,00,44,23.30
2009,07,31,00,45,23.20
2009,07,31,00,46,23.20
2009,07,31,00,47,23.10
2009,07,31,00,48,23.10
2009,07,31,00,49,22.90
2009,07,31,00,50,22.90
2009,07,31,00,51,22.90
2009,07,31,00,52,22.90
2009,07,31,00,53,22.80
2009,07,31,00,54,22.70
2009,07,31,00,55,22.70
2009,07,31,00,56,22.60
2009,07,31,00,57,22.60
2009,07,31,00,58,22.60
2009,07,31,00,59,22.60
2009,07,31,01,00,22.60
2009,07,31,01,01,22.60
2009,07,31,01,02,22.50
2009,07,31,01,03,22.50
2009,07,31,01,04,22.50
2009,07,31,01,05,22.50
2009,07,31,01,06,22.50
2009,07,31,01,07,22.50
2009,07,31,01,08,22.40
2009,07,31,01,09,22.40
2009,07,31,01,10,22.40
2009,07,31,01,11,22.50
2009,07,31,01,12,22.50
2009,07,31,01,13,22.60
2009,07,31,01,14,22.60
2009,07,31,01,15,22.70
2009,07,31,01,16,22.70
2009,07,31,01,17,22.80
2009,07,31,01,18,22.80
2009,07,31,01,19,22.80
2009,07,31,01,20,22.80
2009,07,31,01,21,22.80
2009,07,31,01,22,22.80
2009,07,31,01,23,22.80
2009,07,31,01,24,22.80
2009,07,31,01,25,22.70
2009,07,31,01,26,22.60
2009,07,31,01,27,22.60
2009,07,31,01,28,22.50
2009,07,31,01,29,22.40
2009,07,31,01,30,22.40
2009,07,31,01,31,22.40
2009,07,31,01,32,22.40
2009,07,31,01,33,22.40
2009,07,31,01,34,22.40
2009,07,31,01,35,22.40
2009,07,31,01,36,22.40
2009,07,31,01,37,22.40
2009,07,31,01,38,22.40
2009,07,31,01,39,22.40
2009,07,31,01,40,22.40
2009,07,31,01,41,22.40
2009,07,31,01,42,22.40
2009,07,31,01,43,22.30
2009,07,31,01,44,22.30
2009,07,31,01,45,22.30
2009,07,31,01,46,22.30
2009,07,31,01,47,22.20
2009,07,31,01,48,22.20
2009,07,31,01,49,22.20
2009,07,31,01,50,22.20
2009,07,31,01,51,22.20
2009,07,31,01,52,22.20
2009,07,31,01,53,22.20
2009,07,31,01,54,22.10
2009,07,31,01,55,22.10
2009,07,31,01,56,22.00
2009,07,31,01,57,22.00
2009,07,31,01,58,21.90
2009,07,31,01,59,21.90
2009,07,31,02,00,21.80
2009,07,31,02,01,21.80
2009,07,31,02,02,21.70
2009,07,31,02,03,21.80
2009,07,31,02,04,21.80
2009,07,31,02,05,21.80
2009,07,31,02,06,21.90
2009,07,31,02,07,21.90
2009,07,31,02,08,21.90
2009,07,31,02,09,21.90
2009,07,31,02,10,21.90
2009,07,31,02,11,21.90
2009,07,31,02,12,21.90
2009,07,31,02,13,21.90
2009,07,31,02,14,21.90
2009,07,31,02,15,21.90
2009,07,31,02,16,21.90
2009,07,31,02,17,21.80
2009,07,31,02,18,21.80
2009,07,31,02,19,21.80
2009,07,31,02,20,21.80
2009,07,31,02,21,21.80
2009,07,31,02,22,21.80
2009,07,31,02,23,21.80
2009,07,31,02,24,21.70
2009,07,31,02,25,21.70
2009,07,31,02,26,21.70
2009,07,31,02,27,21.70
2009,07,31,02,28,21.70
2009,07,31,02,29,21.70
2009,07,31,02,30,21.70
2009,07,31,02,31,21.70
2009,07,31,02,32,21.70
2009,07,31,02,33,21.70
2009,07,31,02,34,21.60
2009,07,31,02,35,21.60
2009,07,31,02,36,21.60
2009,07,31,02,37,21.60
2009,07,31,02,38,21.60
2009,07,31,02,39,21.60
2009,07,31,02,40,21.60
2009,07,31,02,41,21.60
2009,07,31,02,42,21.60
2009,07,31,02,43,21.60
2009,07,31,02,44,21.60
2009,07,31,02,45,21.60
2009,07,31,02,46,21.60
2009,07,31,02,47,21.60
2009,07,31,02,48,21.60
2009,07,31,02,49,21.60
2009,07,31,02,50,21.60
2009,07,31,02,51,21.60
2009,07,31,02,52,21.50
2009,07,31,02,53,21.50
2009,07,31,02,54,21.60
2009,07,31,02,55,21.60
2009,07,31,02,56,21.60
2009,07,31,02,57,21.60
2009,07,31,02,58,21.60
2009,07,31,02,59,21.60
2009,07,31,03,00,21.60
2009,07,31,03,01,21.60
2009,07,31,03,02,21.50
2009,07,31,03,03,21.40
2009,07,31,03,04,21.30
2009,07,31,03,05,21.30
2009,07,31,03,06,21.30
2009,07,31,03,07,21.30
2009,07,31,03,08,21.30
2009,07,31,03,09,21.30
2009,07,31,03,10,21.30
2009,07,31,03,11,21.40
2009,07,31,03,12,21.60
2009,07,31,03,13,21.60
2009,07,31,03,14,21.60
2009,07,31,03,15,21.70
2009,07,31,03,16,21.80
2009,07,31,03,17,21.80
2009,07,31,03,18,21.90
2009,07,31,03,19,21.90
2009,07,31,03,20,22.00
2009,07,31,03,21,22.00
2009,07,31,03,22,22.00
2009,07,31,03,23,22.00
2009,07,31,03,24,22.10
2009,07,31,03,25,22.10
2009,07,31,03,26,22.10
2009,07,31,03,27,22.10
2009,07,31,03,28,22.10
2009,07,31,03,29,22.10
2009,07,31,03,30,22.10
2009,07,31,03,31,22.10
2009,07,31,03,32,22.10
2009,07,31,03,33,22.10
2009,07,31,03,34,22.20
2009,07,31,03,35,22.20
2009,07,31,03,36,22.20
2009,07,31,03,37,22.20
2009,07,31,03,38,22.20
2009,07,31,03,39,22.20
2009,07,31,03,40,22.20
2009,07,31,03,41,22.20
2009,07,31,03,42,22.20
2009,07,31,03,43,22.20
2009,07,31,03,44,22.20
2009,07,31,03,45,22.20
2009,07,31,03,46,22.20
2009,07,31,03,47,22.20
2009,07,31,03,48,22.20
2009,07,31,03,49,22.20
2009,07,31,03,50,22.20
2009,07,31,03,51,22.20
2009,07,31,03,52,22.20
2009,07,31,03,53,22.20
2009,07,31,03,54,22.10
2009,07,31,03,55,22.10
2009,07,31,03,56,22.10
2009,07,31,03,57,22.10
2009,07,31,03,58,22.00
2009,07,31,03,59,22.00
2009,07,31,04,00,22.00
2009,07,31,04,01,21.90
2009,07,31,04,02,21.90
2009,07,31,04,03,21.90
2009,07,31,04,05,21.80
2009,07,31,04,06,21.80
2009,07,31,04,07,21.80
2009,07,31,04,08,21.80
2009,07,31,04,09,21.70
2009,07,31,04,10,21.70
2009,07,31,04,11,21.70
2009,07,31,04,12,21.70
2009,07,31,04,13,21.70
2009,07,31,04,14,21.60
2009,07,31,04,15,21.60
2009,07,31,04,16,21.60
2009,07,31,04,17,21.60
2009,07,31,04,18,21.60
2009,07,31,04,19,21.60
2009,07,31,04,20,21.60
2009,07,31,04,21,21.60
2009,07,31,04,22,21.50
2009,07,31,04,23,21.40
2009,07,31,04,24,21.40
2009,07,31,04,25,21.40
2009,07,31,04,26,21.30
2009,07,31,04,27,21.30
2009,07,31,04,28,21.30
2009,07,31,04,29,21.30
2009,07,31,04,30,21.30
2009,07,31,04,31,21.30
2009,07,31,04,32,21.20
2009,07,31,04,33,21.20
2009,07,31,04,34,21.10
2009,07,31,04,35,21.10
2009,07,31,04,36,21.00
2009,07,31,04,37,21.00
2009,07,31,04,38,20.90
2009,07,31,04,39,20.90
2009,07,31,04,40,20.80
2009,07,31,04,41,20.80
2009,07,31,04,42,20.80
2009,07,31,04,43,20.70
2009,07,31,04,44,20.70
2009,07,31,04,45,20.70
2009,07,31,04,46,20.60
2009,07,31,04,47,20.60
2009,07,31,04,48,20.50
2009,07,31,04,49,20.50
2009,07,31,04,50,20.40
2009,07,31,04,51,20.30
2009,07,31,04,52,20.30
2009,07,31,04,53,20.20
2009,07,31,04,54,20.20
2009,07,31,04,55,20.20
2009,07,31,04,56,20.20
2009,07,31,04,57,20.20
2009,07,31,04,58,20.20
2009,07,31,04,59,20.20
2009,07,31,05,00,20.20
2009,07,31,05,01,20.20
2009,07,31,05,02,20.20
2009,07,31,05,03,20.20
2009,07,31,05,04,20.20
2009,07,31,05,05,20.20
2009,07,31,05,06,20.20
2009,07,31,05,07,20.20
2009,07,31,05,08,20.20
2009,07,31,05,09,20.20
2009,07,31,05,10,20.20
2009,07,31,05,11,20.20
2009,07,31,05,12,20.20
2009,07,31,05,13,20.20
2009,07,31,05,14,20.30
2009,07,31,05,15,20.30
2009,07,31,05,16,20.30
2009,07,31,05,17,20.20
2009,07,31,05,18,20.20
2009,07,31,05,19,20.20
2009,07,31,05,20,20.20
2009,07,31,05,21,20.20
2009,07,31,05,22,20.20
2009,07,31,05,23,20.20
2009,07,31,05,24,20.20
2009,07,31,05,25,20.20
2009,07,31,05,26,20.20
2009,07,31,05,27,20.20
2009,07,31,05,28,20.20
2009,07,31,05,29,20.20
2009,07,31,05,30,20.20
2009,07,31,05,31,20.20
2009,07,31,05,32,20.20
2009,07,31,05,33,20.10
2009,07,31,05,34,20.10
2009,07,31,05,35,20.10
2009,07,31,05,36,20.10
2009,07,31,05,37,20.00
2009,07,31,05,38,19.90
2009,07,31,05,39,19.90
2009,07,31,05,40,19.90
2009,07,31,05,41,19.90
2009,07,31,05,42,19.90
2009,07,31,05,43,19.90
2009,07,31,05,44,19.80
2009,07,31,05,45,19.80
2009,07,31,05,46,19.80
2009,07,31,05,47,19.70
2009,07,31,05,48,19.70
2009,07,31,05,49,19.70
2009,07,31,05,50,19.70
2009,07,31,05,51,19.70
2009,07,31,05,52,19.60
2009,07,31,05,53,19.60
2009,07,31,05,54,19.60
2009,07,31,05,55,19.60
2009,07,31,05,56,19.60
2009,07,31,05,57,19.50
2009,07,31,05,58,19.50
2009,07,31,05,59,19.50
2009,07,31,06,00,19.50
2009,07,31,06,01,19.50
2009,07,31,06,02,19.50
2009,07,31,06,03,19.50
2009,07,31,06,04,19.50
2009,07,31,06,05,19.50
2009,07,31,06,06,19.50
2009,07,31,06,07,19.50
2009,07,31,06,08,19.50
2009,07,31,06,09,19.50
2009,07,31,06,10,19.50
2009,07,31,06,11,19.40
2009,07,31,06,12,19.50
2009,07,31,06,13,19.50
2009,07,31,06,14,19.50
2009,07,31,06,15,19.50
2009,07,31,06,16,19.60
2009,07,31,06,17,19.60
2009,07,31,06,18,19.60
2009,07,31,06,19,19.70
2009,07,31,06,20,19.70
2009,07,31,06,21,19.80
2009,07,31,06,22,19.80
2009,07,31,06,23,19.80
2009,07,31,06,24,19.80
2009,07,31,06,25,19.80
2009,07,31,06,26,19.80
2009,07,31,06,27,19.90
2009,07,31,06,28,19.90
2009,07,31,06,29,19.90
2009,07,31,06,30,19.90
2009,07,31,06,31,19.90
2009,07,31,06,32,19.90
2009,07,31,06,33,20.10
2009,07,31,06,34,20.10
2009,07,31,06,35,20.10
2009,07,31,06,36,20.20
2009,07,31,06,37,20.20
2009,07,31,06,38,20.20
2009,07,31,06,39,20.20
2009,07,31,06,40,20.20
2009,07,31,06,41,20.20
2009,07,31,06,42,20.20
2009,07,31,06,43,20.20
2009,07,31,06,44,20.30
2009,07,31,06,45,20.30
2009,07,31,06,46,20.30
2009,07,31,06,47,20.30
2009,07,31,06,48,20.30
2009,07,31,06,49,20.30
2009,07,31,06,50,20.30
2009,07,31,06,51,20.30
2009,07,31,06,52,20.40
2009,07,31,06,53,20.40
2009,07,31,06,54,20.50
2009,07,31,06,55,20.50
2009,07,31,06,56,20.60
2009,07,31,06,57,20.60
2009,07,31,06,58,20.70
2009,07,31,06,59,20.70
2009,07,31,07,00,20.80
2009,07,31,07,01,20.90
2009,07,31,07,02,20.90
2009,07,31,07,03,21.00
2009,07,31,07,04,21.00
2009,07,31,07,05,21.10
2009,07,31,07,06,21.20
2009,07,31,07,07,21.20
2009,07,31,07,08,21.30
2009,07,31,07,09,21.30
2009,07,31,07,10,21.30
2009,07,31,07,11,21.40
2009,07,31,07,12,21.40
2009,07,31,07,13,21.50
2009,07,31,07,14,21.60
2009,07,31,07,15,21.60
2009,07,31,07,16,21.60
2009,07,31,07,17,21.60
2009,07,31,07,18,21.70
2009,07,31,07,19,21.70
2009,07,31,07,20,21.70
2009,07,31,07,21,21.70
2009,07,31,07,22,21.80
2009,07,31,07,23,21.80
2009,07,31,07,24,21.90
2009,07,31,07,25,21.90
2009,07,31,07,26,22.00
2009,07,31,07,27,22.00
2009,07,31,07,28,22.10
2009,07,31,07,29,22.20
2009,07,31,07,30,22.20
2009,07,31,07,31,22.20
2009,07,31,07,32,22.30
2009,07,31,07,33,22.30
2009,07,31,07,34,22.30
2009,07,31,07,35,22.40
2009,07,31,07,36,22.40
2009,07,31,07,37,22.40
2009,07,31,07,38,22.40
2009,07,31,07,39,22.40
2009,07,31,07,40,22.40
2009,07,31,07,41,22.40
2009,07,31,07,42,22.40
2009,07,31,07,43,22.40
2009,07,31,07,44,22.40
2009,07,31,07,45,22.40
2009,07,31,07,46,22.40
2009,07,31,07,47,22.50
2009,07,31,07,48,22.50
2009,07,31,07,49,22.50
2009,07,31,07,50,22.60
2009,07,31,07,51,22.60
2009,07,31,07,52,22.60
2009,07,31,07,53,22.50
2009,07,31,07,54,22.50
2009,07,31,07,55,22.50
2009,07,31,07,56,22.50
2009,07,31,07,57,22.50
2009,07,31,07,58,22.50
2009,07,31,07,59,22.50
2009,07,31,08,00,22.50
2009,07,31,08,01,22.50
2009,07,31,08,02,22.50
2009,07,31,08,03,22.50
2009,07,31,08,04,22.60
2009,07,31,08,05,22.60
2009,07,31,08,06,22.60
2009,07,31,08,07,22.60
2009,07,31,08,08,22.50
2009,07,31,08,09,22.50
2009,07,31,08,10,22.40
2009,07,31,08,11,22.50
2009,07,31,08,12,22.50
2009,07,31,08,13,22.50
2009,07,31,08,14,22.60
2009,07,31,08,15,22.60
2009,07,31,08,16,22.60
2009,07,31,08,17,22.70
2009,07,31,08,18,22.70
2009,07,31,08,19,22.80
2009,07,31,08,20,22.90
2009,07,31,08,21,22.90
2009,07,31,08,22,22.90
2009,07,31,08,23,23.00
2009,07,31,08,24,23.10
2009,07,31,08,25,23.10
2009,07,31,08,26,23.10
2009,07,31,08,27,23.10
2009,07,31,08,28,23.10
2009,07,31,08,29,23.20
2009,07,31,08,30,23.20
2009,07,31,08,31,23.20
2009,07,31,08,32,23.10
2009,07,31,08,33,23.10
2009,07,31,08,34,23.10
2009,07,31,08,35,23.10
2009,07,31,08,36,23.10
2009,07,31,08,37,23.10
2009,07,31,08,38,23.20
2009,07,31,08,39,23.30
2009,07,31,08,40,23.30
2009,07,31,08,41,23.30
2009,07,31,08,42,23.30
2009,07,31,08,43,23.30
2009,07,31,08,44,23.40
2009,07,31,08,45,23.50
2009,07,31,08,46,23.60
2009,07,31,08,47,23.70
2009,07,31,08,48,23.70
2009,07,31,08,49,23.70
2009,07,31,08,50,23.70
2009,07,31,08,51,23.70
2009,07,31,08,52,23.80
2009,07,31,08,53,23.80
2009,07,31,08,54,23.90
2009,07,31,08,55,24.00
2009,07,31,08,56,24.10
2009,07,31,08,57,24.10
2009,07,31,08,58,24.10
2009,07,31,08,59,24.20
2009,07,31,09,00,24.30
2009,07,31,09,01,24.30
2009,07,31,09,02,24.40
2009,07,31,09,03,24.40
2009,07,31,09,04,24.40
2009,07,31,09,05,24.40
2009,07,31,09,06,24.40
2009,07,31,09,07,24.30
2009,07,31,09,08,24.30
2009,07,31,09,09,24.30
2009,07,31,09,10,24.30
2009,07,31,09,11,24.30
2009,07,31,09,12,24.20
2009,07,31,09,13,24.10
2009,07,31,09,14,24.00
2009,07,31,09,15,23.80
2009,07,31,09,16,23.70
2009,07,31,09,17,23.70
2009,07,31,09,18,23.70
2009,07,31,09,19,23.70
2009,07,31,09,20,23.70
2009,07,31,09,21,23.70
2009,07,31,09,22,23.70
2009,07,31,09,23,23.70
2009,07,31,09,24,23.70
2009,07,31,09,25,23.70
2009,07,31,09,26,23.70
2009,07,31,09,27,23.70
2009,07,31,09,28,23.70
2009,07,31,09,29,23.70
2009,07,31,09,30,23.80
2009,07,31,09,31,23.80
2009,07,31,09,32,23.90
2009,07,31,09,33,24.00
2009,07,31,09,34,24.10
2009,07,31,09,35,24.10
2009,07,31,09,36,24.10
2009,07,31,09,37,24.10
2009,07,31,09,38,24.10
2009,07,31,09,39,24.10
2009,07,31,09,40,24.10
2009,07,31,09,41,24.10
2009,07,31,09,42,24.00
2009,07,31,09,43,23.90
2009,07,31,09,44,23.90
2009,07,31,09,45,23.90
2009,07,31,09,46,23.90
2009,07,31,09,47,23.90
2009,07,31,09,48,23.80
2009,07,31,09,49,23.80
2009,07,31,09,50,23.80
2009,07,31,09,51,23.80
2009,07,31,09,52,23.80
2009,07,31,09,53,23.80
2009,07,31,09,54,23.80
2009,07,31,09,55,23.80
2009,07,31,09,56,23.70
2009,07,31,09,57,23.60
2009,07,31,09,58,23.60
2009,07,31,09,59,23.60
2009,07,31,10,00,23.60
2009,07,31,10,01,23.70
2009,07,31,10,02,23.70
2009,07,31,10,03,23.80
2009,07,31,10,04,23.90
2009,07,31,10,05,23.90
2009,07,31,10,06,23.90
2009,07,31,10,07,23.90
2009,07,31,10,08,23.90
2009,07,31,10,09,23.80
2009,07,31,10,10,23.70
2009,07,31,10,11,23.70
2009,07,31,10,12,23.60
2009,07,31,10,13,23.50
2009,07,31,10,14,23.50
2009,07,31,10,15,23.50
2009,07,31,10,16,23.40
2009,07,31,10,17,23.40
2009,07,31,10,18,23.30
2009,07,31,10,19,23.30
2009,07,31,10,20,23.30
2009,07,31,10,21,23.20
2009,07,31,10,22,23.20
2009,07,31,10,23,23.20
2009,07,31,10,24,23.10
2009,07,31,10,25,23.10
2009,07,31,10,26,22.90
2009,07,31,10,27,22.90
2009,07,31,10,28,22.90
2009,07,31,10,29,22.80
2009,07,31,10,30,22.70
2009,07,31,10,31,22.70
2009,07,31,10,32,22.70
2009,07,31,10,33,22.70
2009,07,31,10,34,22.70
2009,07,31,10,35,22.80
2009,07,31,10,36,22.80
2009,07,31,10,37,22.80
2009,07,31,10,38,22.80
2009,07,31,10,39,22.90
2009,07,31,10,40,22.90
2009,07,31,10,41,22.90
2009,07,31,10,42,22.90
2009,07,31,10,43,22.90
2009,07,31,10,44,22.90
2009,07,31,10,45,22.90
2009,07,31,10,46,22.90
2009,07,31,10,47,22.90
2009,07,31,10,48,22.90
2009,07,31,10,49,23.00
2009,07,31,10,50,23.10
2009,07,31,10,51,23.10
2009,07,31,10,52,23.10
2009,07,31,10,53,23.10
2009,07,31,10,54,23.20
2009,07,31,10,55,23.10
2009,07,31,10,56,23.10
2009,07,31,10,57,23.10
2009,07,31,10,58,23.10
2009,07,31,10,59,23.10
2009,07,31,11,00,23.20
2009,07,31,11,01,23.20
2009,07,31,11,02,23.30
2009,07,31,11,03,23.30
2009,07,31,11,04,23.30
2009,07,31,11,05,23.30
2009,07,31,11,06,23.30
2009,07,31,11,07,23.30
2009,07,31,11,08,23.40
2009,07,31,11,09,23.40
2009,07,31,11,10,23.40
2009,07,31,11,11,23.40
2009,07,31,11,12,23.50
2009,07,31,11,13,23.60
2009,07,31,11,14,23.60
2009,07,31,11,15,23.60
2009,07,31,11,16,23.50
2009,07,31,11,17,23.40
2009,07,31,11,18,23.50
2009,07,31,11,19,23.60
2009,07,31,11,20,23.70
2009,07,31,11,21,23.80
2009,07,31,11,22,23.90
2009,07,31,11,23,23.90
2009,07,31,11,24,23.90
2009,07,31,11,25,24.00
2009,07,31,11,26,24.00
2009,07,31,11,27,23.90
2009,07,31,11,28,23.90
2009,07,31,11,29,23.90
2009,07,31,11,30,23.90
2009,07,31,11,31,23.90
2009,07,31,11,32,23.90
2009,07,31,11,33,23.90
2009,07,31,11,34,23.70
2009,07,31,11,35,23.70
2009,07,31,11,36,23.70
2009,07,31,11,37,23.70
2009,07,31,11,38,23.80
2009,07,31,11,39,23.90
2009,07,31,11,40,24.00
2009,07,31,11,41,24.10
2009,07,31,11,42,24.00
2009,07,31,11,43,23.90
2009,07,31,11,44,23.90
2009,07,31,11,45,23.90
2009,07,31,11,46,23.90
2009,07,31,11,47,24.10
2009,07,31,11,48,24.20
2009,07,31,11,49,24.40
2009,07,31,11,50,24.50
2009,07,31,11,51,24.60
2009,07,31,11,52,24.70
2009,07,31,11,53,24.80
2009,07,31,11,54,24.90
2009,07,31,11,55,25.00
2009,07,31,11,56,25.20
2009,07,31,11,57,25.40
2009,07,31,11,58,25.50
2009,07,31,11,59,25.70
2009,07,31,12,00,25.80
2009,07,31,12,01,25.90
2009,07,31,12,02,26.10
2009,07,31,12,03,26.30
2009,07,31,12,04,26.50
2009,07,31,12,05,26.60
2009,07,31,12,06,26.60
2009,07,31,12,07,26.60
2009,07,31,12,08,26.50
2009,07,31,12,09,26.50
2009,07,31,12,10,26.40
2009,07,31,12,11,26.40
2009,07,31,12,12,26.40
2009,07,31,12,13,26.40
2009,07,31,12,14,26.30
2009,07,31,12,15,26.40
2009,07,31,12,16,26.50
2009,07,31,12,17,26.60
2009,07,31,12,18,26.70
2009,07,31,12,19,26.70
2009,07,31,12,20,26.60
2009,07,31,12,21,26.60
2009,07,31,12,22,26.60
2009,07,31,12,23,26.70
2009,07,31,12,24,26.70
2009,07,31,12,25,26.60
2009,07,31,12,26,26.60
2009,07,31,12,27,26.60
2009,07,31,12,28,26.60
2009,07,31,12,29,26.50
2009,07,31,12,30,26.40
2009,07,31,12,31,26.20
2009,07,31,12,32,26.10
2009,07,31,12,33,26.10
2009,07,31,12,34,26.20
2009,07,31,12,35,26.30
2009,07,31,12,36,26.30
2009,07,31,12,37,26.20
2009,07,31,12,38,26.10
2009,07,31,12,39,26.00
2009,07,31,12,40,26.00
2009,07,31,12,41,26.00
2009,07,31,12,42,25.90
2009,07,31,12,43,25.80
2009,07,31,12,44,25.80
2009,07,31,12,45,25.70
2009,07,31,12,46,25.70
2009,07,31,12,47,25.80
2009,07,31,12,48,25.90
2009,07,31,12,49,26.00
2009,07,31,12,50,26.00
2009,07,31,12,51,25.90
2009,07,31,12,52,25.70
2009,07,31,12,53,25.70
2009,07,31,12,54,25.70
2009,07,31,12,55,25.70
2009,07,31,12,56,25.80
2009,07,31,12,57,25.80
2009,07,31,12,58,25.90
2009,07,31,12,59,25.90
2009,07,31,13,00,25.90
2009,07,31,13,01,25.90
2009,07,31,13,02,25.90
2009,07,31,13,03,25.80
2009,07,31,13,04,25.70
2009,07,31,13,05,25.70
2009,07,31,13,06,25.60
2009,07,31,13,07,25.50
2009,07,31,13,08,25.40
2009,07,31,13,09,25.30
2009,07,31,13,10,25.40
2009,07,31,13,11,25.50
2009,07,31,13,12,25.60
2009,07,31,13,13,25.80
2009,07,31,13,14,25.90
2009,07,31,13,15,26.10
2009,07,31,13,16,26.20
2009,07,31,13,17,26.20
2009,07,31,13,18,26.20
2009,07,31,13,19,26.20
2009,07,31,13,20,26.30
2009,07,31,13,21,26.40
2009,07,31,13,22,26.30
2009,07,31,13,23,26.30
2009,07,31,13,24,26.30
2009,07,31,13,25,26.30
2009,07,31,13,26,26.20
2009,07,31,13,27,26.20
2009,07,31,13,28,26.10
2009,07,31,13,29,26.00
2009,07,31,13,30,26.00
2009,07,31,13,31,25.90
2009,07,31,13,32,25.80
2009,07,31,13,33,25.60
2009,07,31,13,34,25.50
2009,07,31,13,35,25.40
2009,07,31,13,36,25.40
2009,07,31,13,37,25.40
2009,07,31,13,38,25.40
2009,07,31,13,39,25.50
2009,07,31,13,40,25.60
2009,07,31,13,41,25.60
2009,07,31,13,42,25.60
2009,07,31,13,43,25.60
2009,07,31,13,44,25.40
2009,07,31,13,45,25.40
2009,07,31,13,46,25.40
2009,07,31,13,47,25.20
2009,07,31,13,48,25.00
2009,07,31,13,49,25.00
2009,07,31,13,50,25.00
2009,07,31,13,51,25.10
2009,07,31,13,52,25.20
2009,07,31,13,53,25.20
2009,07,31,13,54,25.20
2009,07,31,13,55,25.30
2009,07,31,13,56,25.40
2009,07,31,13,57,25.50
2009,07,31,13,58,25.50
2009,07,31,13,59,25.60
2009,07,31,14,00,25.70
2009,07,31,14,01,25.80
2009,07,31,14,02,25.80
2009,07,31,14,03,25.70
2009,07,31,14,04,25.70
2009,07,31,14,05,25.80
2009,07,31,14,06,25.80
2009,07,31,14,07,25.90
2009,07,31,14,08,25.90
2009,07,31,14,09,26.10
2009,07,31,14,10,26.30
2009,07,31,14,11,26.40
2009,07,31,14,12,26.40
2009,07,31,14,13,26.50
2009,07,31,14,14,26.40
2009,07,31,14,15,26.40
2009,07,31,14,16,26.50
2009,07,31,14,17,26.60
2009,07,31,14,18,26.60
2009,07,31,14,19,26.60
2009,07,31,14,20,26.60
2009,07,31,14,21,26.70
2009,07,31,14,22,26.70
2009,07,31,14,23,26.70
2009,07,31,14,24,26.70
2009,07,31,14,25,26.70
2009,07,31,14,26,26.70
2009,07,31,14,27,26.60
2009,07,31,14,28,26.60
2009,07,31,14,29,26.40
2009,07,31,14,30,26.40
2009,07,31,14,31,26.40
2009,07,31,14,32,26.50
2009,07,31,14,33,26.60
2009,07,31,14,34,26.60
2009,07,31,14,35,26.70
2009,07,31,14,36,26.70
2009,07,31,14,37,26.60
2009,07,31,14,38,26.60
2009,07,31,14,39,26.40
2009,07,31,14,40,26.40
2009,07,31,14,41,26.40
2009,07,31,14,42,26.40
2009,07,31,14,43,26.20
2009,07,31,14,44,26.20
2009,07,31,14,45,26.30
2009,07,31,14,46,26.30
2009,07,31,14,47,26.40
2009,07,31,14,48,26.40
2009,07,31,14,49,26.60
2009,07,31,14,50,26.50
2009,07,31,14,51,26.40
2009,07,31,14,52,26.60
2009,07,31,14,53,26.60
2009,07,31,14,54,26.80
2009,07,31,14,55,26.80
2009,07,31,14,56,26.80
2009,07,31,14,57,26.80
2009,07,31,14,58,26.70
2009,07,31,14,59,26.60
2009,07,31,15,00,26.50
2009,07,31,15,01,26.40
2009,07,31,15,02,26.20
2009,07,31,15,03,26.20
2009,07,31,15,04,26.20
2009,07,31,15,05,26.20
2009,07,31,15,06,26.20
2009,07,31,15,07,26.20
2009,07,31,15,08,26.20
2009,07,31,15,09,26.30
2009,07,31,15,10,26.30
2009,07,31,15,11,26.20
2009,07,31,15,12,26.20
2009,07,31,15,13,26.20
2009,07,31,15,14,26.20
2009,07,31,15,15,26.20
2009,07,31,15,16,26.10
2009,07,31,15,17,26.10
2009,07,31,15,18,26.10
2009,07,31,15,19,26.10
2009,07,31,15,20,26.20
2009,07,31,15,21,26.20
2009,07,31,15,22,26.40
2009,07,31,15,23,26.50
2009,07,31,15,24,26.60
2009,07,31,15,25,26.70
2009,07,31,15,26,26.90
2009,07,31,15,27,27.20
2009,07,31,15,28,27.30
2009,07,31,15,29,27.40
2009,07,31,15,30,27.40
2009,07,31,15,31,27.50
2009,07,31,15,32,27.60
2009,07,31,15,33,27.70
2009,07,31,15,34,27.70
2009,07,31,15,35,27.80
2009,07,31,15,36,27.90
2009,07,31,15,37,27.90
2009,07,31,15,38,27.90
2009,07,31,15,39,28.00
2009,07,31,15,40,28.00
2009,07,31,15,41,27.90
2009,07,31,15,42,27.70
2009,07,31,15,43,27.60
2009,07,31,15,44,27.70
2009,07,31,15,45,27.80
2009,07,31,15,46,27.90
2009,07,31,15,47,27.90
2009,07,31,15,48,27.80
2009,07,31,15,49,27.70
2009,07,31,15,50,27.80
2009,07,31,15,51,27.90
2009,07,31,15,52,27.90
2009,07,31,15,53,27.90
2009,07,31,15,54,27.80
2009,07,31,15,55,27.80
2009,07,31,15,56,27.70
2009,07,31,15,57,27.80
2009,07,31,15,58,27.80
2009,07,31,15,59,27.70
2009,07,31,16,00,27.60
2009,07,31,16,01,27.60
2009,07,31,16,02,27.60
2009,07,31,16,03,27.60
2009,07,31,16,04,27.70
2009,07,31,16,05,27.80
2009,07,31,16,06,28.00
2009,07,31,16,07,28.10
2009,07,31,16,08,28.20
2009,07,31,16,09,28.30
2009,07,31,16,10,28.50
2009,07,31,16,11,28.60
2009,07,31,16,12,28.80
2009,07,31,16,13,28.90
2009,07,31,16,14,28.90
2009,07,31,16,15,28.90
2009,07,31,16,16,28.90
2009,07,31,16,17,28.90
2009,07,31,16,18,29.00
2009,07,31,16,19,29.10
2009,07,31,16,20,29.10
2009,07,31,16,21,29.10
2009,07,31,16,22,29.10
2009,07,31,16,23,29.00
2009,07,31,16,24,28.90
2009,07,31,16,25,28.90
2009,07,31,16,26,28.90
2009,07,31,16,27,29.00
2009,07,31,16,28,29.00
2009,07,31,16,29,28.90
2009,07,31,16,30,28.90
2009,07,31,16,31,28.90
2009,07,31,16,32,28.80
2009,07,31,16,33,28.80
2009,07,31,16,34,28.70
2009,07,31,16,35,28.70
2009,07,31,16,36,28.70
2009,07,31,16,37,28.70
2009,07,31,16,38,28.80
2009,07,31,16,39,28.90
2009,07,31,16,40,28.90
2009,07,31,16,41,29.10
2009,07,31,16,42,29.10
2009,07,31,16,43,29.10
2009,07,31,16,44,29.10
2009,07,31,16,45,29.10
2009,07,31,16,46,29.10
2009,07,31,16,47,29.10
2009,07,31,16,48,29.10
2009,07,31,16,49,29.10
2009,07,31,16,50,29.10
2009,07,31,16,51,29.10
2009,07,31,16,52,29.10
2009,07,31,16,53,29.10
2009,07,31,16,54,29.10
2009,07,31,16,55,29.10
2009,07,31,16,56,29.00
2009,07,31,16,57,28.90
2009,07,31,16,58,28.80
2009,07,31,16,59,28.80
2009,07,31,17,00,28.80
2009,07,31,17,01,28.80
2009,07,31,17,02,28.80
2009,07,31,17,03,28.80
2009,07,31,17,04,28.80
2009,07,31,17,05,28.80
2009,07,31,17,06,28.70
2009,07,31,17,07,28.70
2009,07,31,17,08,28.60
2009,07,31,17,09,28.60
2009,07,31,17,10,28.60
2009,07,31,17,11,28.60
2009,07,31,17,12,28.60
2009,07,31,17,13,28.70
2009,07,31,17,14,28.80
2009,07,31,17,15,28.80
2009,07,31,17,16,28.80
2009,07,31,17,17,28.80
2009,07,31,17,18,28.90
2009,07,31,17,19,28.90
2009,07,31,17,20,28.90